This is the latest recevied weather packets stored in our database for station/object N3DOU-1. If no packets are shown the sender has not sent any weather packets the latest 10 day(s).
| Time | Temp. | Humidity | Pressure | Rain* | Wind** | Luminosity | Snow |
|---|---|---|---|---|---|---|---|
| 1777376488 | 8.33° C | 84% | 1022.1 hPa | 0 mm | - | - | - |
| 1777375586 | 7.22° C | 86% | 1022 hPa | 0 mm | - | - | - |
| 1777374684 | 6.67° C | 85% | 1022.1 hPa | 0 mm | - | - | - |
| 1777373785 | 5.56° C | 85% | 1022.3 hPa | 0 mm | - | - | - |
| 1777372885 | 5.56° C | 85% | 1021.9 hPa | 0 mm | - | - | - |
| 1777371983 | 5° C | 86% | 1021.7 hPa | 0 mm | - | - | - |
| 1777371084 | 5° C | 85% | 1021.7 hPa | 0 mm | - | - | - |
| 1777370182 | 5° C | 85% | 1021.7 hPa | 0 mm | - | - | - |
| 1777369283 | 5° C | 85% | 1021.7 hPa | 0 mm | - | - | - |
| 1777368384 | 5° C | 85% | 1022.1 hPa | 0 mm | - | - | - |
| 1777367484 | 5° C | 85% | 1022.1 hPa | 0 mm | - | - | - |
| 1777366584 | 5° C | 86% | 1022.1 hPa | 0 mm | - | - | - |
| 1777364784 | 5° C | 84% | 1022.7 hPa | 0 mm | - | - | - |
| 1777363884 | 5.56° C | 83% | 1022.9 hPa | 0 mm | - | - | - |
| 1777362987 | 5.56° C | 82% | 1023 hPa | 0 mm | - | - | - |
| 1777362085 | 5.56° C | 82% | 1023 hPa | 0 mm | - | - | - |
| 1777361184 | 6.11° C | 81% | 1023.1 hPa | 0 mm | - | - | - |
| 1777360284 | 6.11° C | 81% | 1023.1 hPa | 0 mm | - | - | - |
| 1777359384 | 6.67° C | 80% | 1023.2 hPa | 0 mm | - | - | - |
| 1777358485 | 6.67° C | 80% | 1023 hPa | 0 mm | - | - | - |
| 1777357586 | 7.22° C | 78% | 1023 hPa | 0 mm | - | - | - |
| 1777356685 | 7.78° C | 78% | 1023.1 hPa | 0 mm | - | - | - |
| 1777355783 | 7.78° C | 76% | 1023 hPa | 0 mm | - | - | - |
| 1777354884 | 8.33° C | 75% | 1023.4 hPa | 0 mm | - | - | - |
| 1777353983 | 8.33° C | 77% | 1023.1 hPa | 0 mm | - | - | - |
* Rain latest hour (hover to see other rain measurements)
** Current wind speed in m/s (hover to see current wind gust speed)